When you browse on this site, cookies collect data to enhance your experience and personalize the content and advertising you see.
Visit our Privacy Policy to learn more. By continuing to use the site, you agree to this use of cookies and data.
  • In Latvia
  • List of Countries
  • For 7 days
  • Water Temperature
  • Satellite Maps
  • Weather Map
  • Weather Widgets
  • user-avatar
    Login

    Hourly Weather Konstantyna

    Today, 22 May, Wednesday

    Time Temperature Precipitation Wind Pressure Humidity
    00:00 +14°C° 0 mm 1 mps 710 mmHg 87%
    01:00 +13°C° 0.2 mm 1 mps 710 mmHg 86%
    02:00 +13°C° 0.2 mm 1 mps 710 mmHg 85%
    03:00 +13°C° 0.2 mm 1 mps 709 mmHg 84%
    04:00 +14°C° 0 mm 1 mps 710 mmHg 81%
    05:00 +15°C° 0 mm 1 mps 710 mmHg 77%
    06:00 +16°C° 0 mm 1 mps 710 mmHg 74%
    07:00 +19°C° 0 mm 1 mps 710 mmHg 67%
    08:00 +20°C° 0 mm 1 mps 711 mmHg 60%
    09:00 +20°C° 0 mm 0 mps 711 mmHg 52%
    10:00 +22°C° 0.8 mm 1 mps 711 mmHg 52%
    11:00 +23°C° 0.8 mm 1 mps 711 mmHg 52%
    12:00 +23°C° 0.8 mm 2 mps 711 mmHg 52%
    13:00 +23°C° 1.5 mm 2 mps 711 mmHg 55%
    14:00 +22°C° 1.5 mm 3 mps 711 mmHg 58%
    15:00 +21°C° 1.5 mm 4 mps 711 mmHg 61%
    16:00 +20°C° 1.1 mm 3 mps 711 mmHg 65%
    17:00 +19°C° 1.1 mm 3 mps 711 mmHg 69%
    18:00 +18°C° 1.1 mm 2 mps 711 mmHg 73%
    19:00 +17°C° 0 mm 2 mps 711 mmHg 77%
    20:00 +15°C° 0 mm 1 mps 711 mmHg 81%
    21:00 +14°C° 0 mm 1 mps 711 mmHg 84%
    22:00 +14°C° 0 mm 1 mps 711 mmHg 85%
    23:00 +13°C° 0 mm 1 mps 711 mmHg 85%

    Tomorrow, 23 May, Thursday

    Time Temperature Precipitation Wind Pressure Humidity
    00:00 +12°C° 0 mm 0 mps 711 mmHg 86%
    01:00 +12°C° 0 mm 0 mps 711 mmHg 85%
    02:00 +11°C° 0 mm 0 mps 711 mmHg 85%
    03:00 +12°C° 0 mm 1 mps 710 mmHg 84%
    04:00 +12°C° 0 mm 0 mps 711 mmHg 79%
    05:00 +13°C° 0 mm 0 mps 711 mmHg 73%
    06:00 +15°C° 0 mm 0 mps 711 mmHg 68%
    07:00 +17°C° 0 mm 0 mps 712 mmHg 59%
    08:00 +18°C° 0 mm 0 mps 712 mmHg 49%
    09:00 +22°C° 0 mm 1 mps 713 mmHg 40%
    10:00 +23°C° 0 mm 1 mps 713 mmHg 37%
    11:00 +24°C° 0 mm 1 mps 713 mmHg 34%
    12:00 +25°C° 0 mm 1 mps 713 mmHg 30%
    13:00 +26°C° 0 mm 1 mps 712 mmHg 31%
    14:00 +26°C° 0 mm 2 mps 712 mmHg 32%
    15:00 +26°C° 0 mm 3 mps 711 mmHg 33%
    16:00 +24°C° 0 mm 3 mps 711 mmHg 41%
    17:00 +21°C° 0 mm 3 mps 711 mmHg 49%
    18:00 +20°C° 0 mm 3 mps 710 mmHg 57%
    19:00 +18°C° 0 mm 2 mps 711 mmHg 60%
    20:00 +17°C° 0 mm 2 mps 711 mmHg 63%
    21:00 +15°C° 0 mm 1 mps 711 mmHg 67%
    22:00 +15°C° 0 mm 1 mps 710 mmHg 67%
    23:00 +15°C° 0 mm 1 mps 710 mmHg 67%

    Day after tomorrow, 24 May, Friday

    Time Temperature Precipitation Wind Pressure Humidity
    00:00 +15°C° 0 mm 1 mps 710 mmHg 67%
    01:00 +15°C° 0 mm 1 mps 709 mmHg 66%
    02:00 +15°C° 0 mm 1 mps 709 mmHg 65%
    03:00 +14°C° 0 mm 1 mps 709 mmHg 64%
    04:00 +16°C° 0.1 mm 1 mps 709 mmHg 62%
    05:00 +18°C° 0.1 mm 1 mps 709 mmHg 60%
    06:00 +19°C° 0.1 mm 1 mps 709 mmHg 58%
    07:00 +21°C° 0.1 mm 1 mps 709 mmHg 53%
    08:00 +23°C° 0.1 mm 2 mps 709 mmHg 48%
    09:00 +25°C° 0.1 mm 2 mps 709 mmHg 43%
    10:00 +26°C° 0 mm 2 mps 709 mmHg 41%
    11:00 +27°C° 0 mm 3 mps 709 mmHg 40%
    12:00 +29°C° 0 mm 3 mps 709 mmHg 38%
    13:00 +27°C° 0 mm 3 mps 708 mmHg 44%
    14:00 +26°C° 0 mm 3 mps 708 mmHg 49%
    15:00 +25°C° 0 mm 3 mps 707 mmHg 55%
    16:00 +24°C° 0.2 mm 3 mps 707 mmHg 62%
    17:00 +22°C° 0.2 mm 3 mps 707 mmHg 69%
    18:00 +21°C° 0.2 mm 3 mps 706 mmHg 77%
    19:00 +20°C° 2.1 mm 3 mps 706 mmHg 81%
    20:00 +19°C° 2.1 mm 3 mps 707 mmHg 85%
    21:00 +18°C° 2.1 mm 2 mps 707 mmHg 90%
    22:00 +18°C° 1.9 mm 2 mps 706 mmHg 91%
    23:00 +18°C° 1.9 mm 1 mps 706 mmHg 91%

    25 May, Saturday

    Time Temperature Precipitation Wind Pressure Humidity
    00:00 +18°C° 1.9 mm 1 mps 706 mmHg 92%
    01:00 +18°C° 0.5 mm 1 mps 705 mmHg 91%
    02:00 +18°C° 0.5 mm 1 mps 705 mmHg 90%
    03:00 +18°C° 0.5 mm 1 mps 705 mmHg 89%
    04:00 +18°C° 0.4 mm 1 mps 705 mmHg 89%
    05:00 +18°C° 0.4 mm 1 mps 705 mmHg 89%
    06:00 +17°C° 0.4 mm 2 mps 705 mmHg 89%
    07:00 +18°C° 0.3 mm 2 mps 705 mmHg 83%
    08:00 +19°C° 0.3 mm 2 mps 706 mmHg 78%
    09:00 +20°C° 0.3 mm 2 mps 706 mmHg 73%
    10:00 +20°C° 1.7 mm 2 mps 706 mmHg 73%
    11:00 +20°C° 1.7 mm 2 mps 706 mmHg 73%
    12:00 +20°C° 1.7 mm 3 mps 706 mmHg 73%
    13:00 +19°C° 0.4 mm 3 mps 705 mmHg 75%
    14:00 +19°C° 0.4 mm 4 mps 705 mmHg 76%
    15:00 +19°C° 0.4 mm 4 mps 705 mmHg 77%
    16:00 +18°C° 0.1 mm 4 mps 705 mmHg 81%
    17:00 +17°C° 0.1 mm 3 mps 705 mmHg 84%
    18:00 +17°C° 0.1 mm 3 mps 706 mmHg 87%
    19:00 +16°C° 0.8 mm 2 mps 706 mmHg 89%
    20:00 +16°C° 0.8 mm 2 mps 706 mmHg 91%
    21:00 +16°C° 0.8 mm 1 mps 707 mmHg 93%
    22:00 +15°C° 2.5 mm 2 mps 706 mmHg 93%
    23:00 +15°C° 2.5 mm 2 mps 706 mmHg 93%

    26 May, Sunday

    Time Temperature Precipitation Wind Pressure Humidity
    00:00 +15°C° 2.5 mm 2 mps 706 mmHg 93%
    01:00 +15°C° 0.3 mm 2 mps 705 mmHg 93%
    02:00 +14°C° 0.3 mm 2 mps 705 mmHg 93%
    03:00 +14°C° 0.3 mm 2 mps 705 mmHg 93%
    04:00 +14°C° 0.2 mm 2 mps 705 mmHg 92%
    05:00 +14°C° 0.2 mm 2 mps 705 mmHg 91%
    06:00 +14°C° 0.2 mm 2 mps 705 mmHg 89%
    07:00 +14°C° 0.1 mm 2 mps 706 mmHg 86%
    08:00 +15°C° 0.1 mm 2 mps 706 mmHg 83%
    09:00 +15°C° 0.1 mm 2 mps 706 mmHg 80%
    10:00 +16°C° 0.1 mm 3 mps 706 mmHg 76%
    11:00 +17°C° 0.1 mm 4 mps 706 mmHg 73%
    12:00 +17°C° 0.1 mm 5 mps 706 mmHg 69%
    13:00 +17°C° 0.1 mm 5 mps 706 mmHg 69%
    14:00 +17°C° 0.1 mm 5 mps 706 mmHg 69%
    15:00 +16°C° 0.1 mm 5 mps 706 mmHg 69%
    16:00 +17°C° 0.1 mm 4 mps 706 mmHg 74%
    17:00 +15°C° 0.1 mm 4 mps 706 mmHg 79%
    18:00 +14°C° 0.1 mm 3 mps 706 mmHg 84%
    19:00 +15°C° 0.1 mm 2 mps 707 mmHg 87%
    20:00 +14°C° 0.1 mm 2 mps 707 mmHg 90%
    21:00 +14°C° 0.1 mm 1 mps 707 mmHg 92%
    22:00 +13°C° 0 mm 1 mps 707 mmHg 94%
    23:00 +13°C° 0 mm 1 mps 707 mmHg 95%

    27 May, Monday

    Time Temperature Precipitation Wind Pressure Humidity
    00:00 +12°C° 0 mm 1 mps 707 mmHg 96%
    01:00 +12°C° 0 mm 1 mps 707 mmHg 96%
    02:00 +12°C° 0 mm 1 mps 706 mmHg 96%
    03:00 +11°C° 0 mm 1 mps 706 mmHg 96%
    04:00 +12°C° 0 mm 2 mps 707 mmHg 92%
    05:00 +13°C° 0 mm 2 mps 707 mmHg 89%
    06:00 +14°C° 0 mm 2 mps 707 mmHg 85%
    07:00 +14°C° 0 mm 3 mps 707 mmHg 80%
    08:00 +16°C° 0 mm 3 mps 708 mmHg 75%
    09:00 +17°C° 0 mm 3 mps 708 mmHg 70%
    10:00 +16°C° 0.2 mm 3 mps 708 mmHg 74%
    11:00 +16°C° 0.2 mm 3 mps 708 mmHg 79%
    12:00 +14°C° 0.2 mm 3 mps 708 mmHg 83%
    13:00 +17°C° 0 mm 4 mps 708 mmHg 79%
    14:00 +17°C° 0 mm 5 mps 708 mmHg 74%
    15:00 +19°C° 0 mm 6 mps 708 mmHg 69%
    16:00 +17°C° 0 mm 5 mps 708 mmHg 72%
    17:00 +17°C° 0 mm 4 mps 708 mmHg 75%
    18:00 +17°C° 0 mm 4 mps 708 mmHg 78%
    19:00 +14°C° 0 mm 3 mps 709 mmHg 83%
    20:00 +14°C° 0 mm 2 mps 709 mmHg 87%
    21:00 +13°C° 0 mm 1 mps 709 mmHg 92%
    22:00 +13°C° 0 mm 2 mps 709 mmHg 92%
    23:00 +13°C° 0 mm 2 mps 709 mmHg 92%
    Show more